Miscellaneous Local Product
Issued by NWS North Platte, NE

Home | Current Version | Previous Version | Text Only | Print | Product List | Glossary On
Versions: 1 2 3 4 5 6 7 8 9 10 11 12 13 14 15 16 17 18 19 20 21 22 23 24 25 26 27 28 29 30 31 32 33 34 35 36 37 38 39 40 41 42 43 44 45 46 47 48 49 50
625
AXUS43 KLBF 282210
MISLBF


WESTERN AND NORTH CENTRAL NEBRASKA HOURLY WEATHER ROUNDUP
NATIONAL WEATHER SERVICE NORTH PLATTE NE
500 PM CDT SUN AUG 28 2016

NOTE: "FAIR" INDICATES FEW OR NO CLOUDS BELOW 12,000 FEET WITH NO
SIGNIFICANT WEATHER AND/OR OBSTRUCTIONS TO VISIBILITY.

NOTE: STATIONS NOT REPORTING VARIABLES SUCH AS SKY/WEATHER OR
PRESSURE ARE PROVIDED BY RAWS AND APRS NETWORKS AND ARE NOT UNDER
NATIONAL WEATHER SERVICE QUALITY CONTROL.

...OBSERVATIONS IN AND NEAR THE EASTERN PANHANDLE OF NEBRASKA...

CITY           SKY/WX    TMP DP  RH WIND       PRES   REMARKS
PINE RIDGE     MOSUNNY   93  41  16 VRB3      29.99S
CHADRON        SUNNY     96  31  10 VRB7      29.97F HX  90
ALLIANCE       MOSUNNY   86  48  26 S10       30.06S
SIDNEY         CLOUDY    86  50  28 SE14      30.10F
CRESCENT LAKE    N/A     85  53  33 S5          N/A
$$

...OBSERVATIONS IN NORTHERN NEBRASKA AND FAR SOUTHERN SOUTH DAKOTA...

CITY           SKY/WX    TMP DP  RH WIND       PRES   REMARKS
WINNER         FAIR      96  61  31 S17       29.95S HX  96
THEDFORD       SUNNY     92  55  29 SW8       30.03S HX  90
AINSWORTH      MOSUNNY   89  57  33 S14       30.01S
O`NEILL        SUNNY     92  54  27 S13G24    30.02S HX  90
ORD            SUNNY     87  59  38 S13       30.02F
BROKEN BOW     MOSUNNY   84  62  47 S16G26    30.05S
VALENTINE NWR    N/A     88  57  34 S12G21      N/A
BUTTE            N/A     90  62  39 SE12G28     N/A  HX  90
HALSEY           N/A     92  53  26 S8G17       N/A
EWING            N/A     89  64  43 S8          N/A  HX  90
$$

...OBSERVATIONS IN SOUTHWEST NEBRASKA AND FAR NORTHEAST COLORADO...

CITY           SKY/WX    TMP DP  RH WIND       PRES   REMARKS
HOLYOKE        FAIR      88  52  29 S9G18     30.08F
IMPERIAL       SUNNY     85  53  33 SE16      30.06F
OGALLALA       MOSUNNY   91  48  23 S15G21    30.05S
NORTH PLATTE   MOSUNNY   87  57  35 S12       30.05S
MCCOOK         CLOUDY    82  59  45 S9        30.06F
LEXINGTON      CLOUDY    84  62  48 S13       30.06S
STAPLETON        N/A     90  60  36 CALM        N/A
GOTHENBURG       N/A     83  57  41 S8          N/A
CALLAWAY         N/A     82  67  60 S12         N/A
$$

...OBSERVATIONS IN CENTRAL LINCOLN COUNTY AREA...

CITY           SKY/WX    TMP DP  RH WIND       PRES   REMARKS
N.P. AIRPORT   MOSUNNY   87  57  35 S12       30.05S
N.P. DOWNTOWN    N/A     85  60  42 S7          N/A
N.P. SOUTHEAST   N/A     84  58  41 S10G18      N/A
N.P. HILLCREST   N/A     84  59  42 S12G21      N/A
$$

...SOME OBSERVATIONS FROM AROUND THE REGION...

CITY           SKY/WX    TMP DP  RH WIND       PRES   REMARKS
DENVER         CLOUDY    84  36  18 S5        30.14F
LARAMIE        CLOUDY    78  26  14 N9        30.26F
CHEYENNE       CLOUDY    80  32  17 SE6       30.19S
SCOTTSBLUFF    MOSUNNY   89  42  19 SE10      30.06S
RAPID CITY     SUNNY     91  49  23 NE9       29.97F
BISMARCK       SUNNY     89  64  43 SE7       29.90R HX  90
PIERRE         SUNNY     95  59  30 W8        29.87F HX  94
SIOUX FALLS    MOSUNNY   89  72  56 SE15G22   30.02F HX  96
OMAHA          CLOUDY    89  73  59 S17       30.05R HX  97
GRAND ISLAND   MOSUNNY   88  67  49 S12G18    30.04F HX  91
KANSAS CITY    PTSUNNY   86  70  58 S6        30.07F HX  90
WICHITA        PTSUNNY   84  71  65 S20       30.04S
OKLAHOMA CITY  MOSUNNY   93  63  36 SE13G22   30.00F HX  94
DALLAS         MOSUNNY   91  64  40 SE9G18    29.97F HX  92
AMARILLO       MOSUNNY   85  60  42 S10       30.08F
DODGE CITY     CLOUDY    81  66  60 SE22G30   30.08S
HAYS           SUNNY     88  59  37 S8        30.04F
GOODLAND       SUNNY     84  58  40 SE14G21   30.08F
$$




USA.gov is the U.S. government's official web portal to all federal, state and local government web resources and services.